VK2XSE Weather Reports


Display with metric or nautical units.
time (UTC)temp
F
wind
direction
speed
MPH
gust
MPH
rain 1hr
in
rain 24hr
in
rain mn
in
humidity
%
barometer
mb
20260505230518 51 270 1.0 3.0 0.00 0.00 0.00 95 1023.3
20260505225517 50 270 1.0 3.0 0.00 0.00 0.00 95 1023.3
20260505224518 49 270 1.0 1.0 0.00 0.00 0.00 95 1023.2
20260505223517 48 0 1.0 1.0 0.00 0.00 0.00 94 1023.2
20260505222517 47 0.0 1.0 0.00 0.00 0.00 94 1023.1
20260505221517 46 0.0 2.0 0.00 0.00 0.00 94 1022.9
20260505220517 46 0.0 2.0 0.00 0.00 0.00 94 1022.9
20260505215517 45 0.0 1.0 0.00 0.00 0.00 93 1022.8
20260505214517 45 0.0 2.0 0.00 0.00 0.00 93 1022.8
20260505213517 44 0.0 2.0 0.00 0.00 0.00 93 1022.7
20260505212517 44 0.0 0.0 0.00 0.00 0.00 92 1022.6
20260505211517 44 0.0 0.0 0.00 0.00 0.00 92 1022.5
20260505210517 44 0.0 0.0 0.00 0.00 0.00 92 1022.5
20260505205517 45 0.0 0.0 0.00 0.00 0.00 92 1022.5
20260505204517 45 0.0 0.0 0.00 0.00 0.00 92 1022.5
20260505203517 45 0.0 0.0 0.00 0.00 0.00 92 1022.5
20260505202517 45 0.0 0.0 0.00 0.00 0.00 92 1022.4
20260505201517 45 0.0 2.0 0.00 0.00 0.00 92 1022.5
20260505200517 45 0.0 2.0 0.00 0.00 0.00 92 1022.4
20260505195517 45 0.0 0.0 0.00 0.00 0.00 92 1022.4
20260505194517 45 0.0 1.0 0.00 0.00 0.00 92 1022.4
20260505193517 45 0.0 2.0 0.00 0.00 0.00 91 1022.3
20260505192517 45 0.0 0.0 0.00 0.00 0.00 91 1022.3
20260505191517 45 0.0 0.0 0.00 0.00 0.00 91 1022.3
20260505190517 45 0.0 0.0 0.00 0.00 0.00 91 1022.3
20260505185517 45 0.0 1.0 0.00 0.00 0.00 91 1022.3
20260505184517 45 0.0 0.0 0.00 0.00 0.00 91 1022.3
20260505183517 45 0.0 0.0 0.00 0.00 0.00 91 1022.2
20260505182517 46 0.0 2.0 0.00 0.00 0.00 91 1022.1
20260505181517 46 0.0 2.0 0.00 0.00 0.00 91 1022.2
20260505180517 46 0.0 2.0 0.00 0.00 0.00 90 1022.1
20260505175517 47 0.0 2.0 0.00 0.00 0.00 91 1022.1
20260505174517 47 0.0 2.0 0.00 0.00 0.00 91 1022.1
20260505173517 47 0.0 1.0 0.00 0.00 0.00 91 1022.0
20260505172517 48 0.0 1.0 0.00 0.00 0.00 91 1022.1
20260505171517 48 0.0 2.0 0.00 0.00 0.00 91 1022.2
20260505170517 48 0.0 1.0 0.00 0.00 0.00 91 1022.2
20260505165517 48 0.0 2.0 0.00 0.00 0.00 91 1022.3
20260505164517 48 0.0 2.0 0.00 0.00 0.00 91 1022.3
20260505163517 48 0.0 2.0 0.00 0.00 0.00 91 1022.4
20260505162517 48 0.0 2.0 0.00 0.00 0.00 91 1022.4
20260505161517 48 0.0 2.0 0.00 0.00 0.00 91 1022.4
20260505160516 48 0.0 2.0 0.00 0.00 0.00 91 1022.4
20260505152516 49 270 1.0 2.0 0.00 0.00 0.00 90 1023.0
20260505151518 49 0.0 2.0 0.00 0.00 0.00 90 1023.1
20260505150518 49 0.0 0.0 0.00 0.00 0.00 90 1023.2
20260505140518 50 0 1.0 2.0 0.00 0.00 0.00 91 1023.4
20260505124518 50 0.0 1.0 0.00 0.00 0.00 88 1023.3
20260505123518 50 0 1.0 2.0 0.00 0.00 0.00 88 1023.4
20260505122518 50 0.0 0.0 0.00 0.00 0.00 87 1023.5
20260505121518 50 0.0 0.0 0.00 0.00 0.00 87 1023.5
20260505120518 51 0.0 0.0 0.00 0.00 0.00 87 1023.5
20260505115518 51 0.0 0.0 0.00 0.00 0.00 86 1023.5
20260505114518 51 0.0 0.0 0.00 0.00 0.00 86 1023.5
20260505113518 51 0.0 0.0 0.00 0.00 0.00 86 1023.4
20260505112518 51 0.0 0.0 0.00 0.00 0.00 86 1023.4
20260505111518 52 0.0 0.0 0.00 0.00 0.00 85 1023.3
20260505110518 52 0.0 0.0 0.00 0.00 0.00 85 1023.3
20260505101517 53 0.0 2.0 0.00 0.00 0.00 83 1023.1
20260505100517 53 0.0 2.0 0.00 0.00 0.00 83 1023.0
20260505095517 54 0.0 2.0 0.00 0.00 0.00 83 1022.9
20260505094517 54 0.0 2.0 0.00 0.00 0.00 82 1023.0
20260505093517 54 0.0 1.0 0.00 0.00 0.00 81 1022.9
20260505092517 55 203 1.0 2.0 0.00 0.00 0.00 80 1023.0
20260505091517 55 203 1.0 1.0 0.00 0.00 0.00 78 1022.9
20260505090517 56 0.0 2.0 0.00 0.00 0.00 77 1022.8
20260505085517 57 203 1.0 2.0 0.00 0.00 0.00 76 1022.7
20260505084517 58 203 1.0 2.0 0.00 0.00 0.00 75 1022.6
20260505083517 58 203 2.0 3.0 0.00 0.00 0.00 72 1022.6
20260505082517 59 203 3.0 3.0 0.00 0.00 0.00 71 1022.4
20260505081517 59 203 2.0 2.0 0.00 0.00 0.00 71 1022.3
20260505080517 59 0.0 0.0 0.00 0.00 0.00 71 1022.2
20260505075517 60 0.0 1.0 0.00 0.00 0.00 70 1022.1
20260505074517 61 0.0 2.0 0.00 0.00 0.00 69 1022.0
20260505073517 61 0.0 2.0 0.00 0.00 0.00 67 1021.9
20260505072517 62 0.0 0.0 0.00 0.00 0.00 65 1021.9
20260505071517 62 0.0 0.0 0.00 0.00 0.00 64 1021.8
20260505070517 62 203 1.0 3.0 0.00 0.00 0.00 63 1021.7
20260505065517 63 0 1.0 5.0 0.00 0.00 0.00 62 1021.5
20260505064517 63 0 1.0 3.0 0.00 0.00 0.00 61 1021.5
20260505063517 63 0 3.0 9.0 0.00 0.00 0.00 60 1021.5
20260505062517 63 248 1.0 3.0 0.00 0.00 0.00 60 1021.5
20260505061517 63 270 1.0 2.0 0.00 0.00 0.00 59 1021.4
20260505060517 63 0 1.0 2.0 0.00 0.00 0.00 61 1021.4
20260505055517 64 0 1.0 2.0 0.00 0.00 0.00 59 1021.3
20260505054517 65 0 1.0 2.0 0.00 0.00 0.00 57 1021.3
20260505053517 64 0 1.0 4.0 0.00 0.00 0.00 58 1021.2
20260505052517 64 0 1.0 3.0 0.00 0.00 0.00 57 1021.2
20260505051517 64 0.0 2.0 0.00 0.00 0.00 60 1021.0
20260505050517 65 0 1.0 2.0 0.00 0.00 0.00 57 1020.9
20260505041517 65 0 4.0 9.0 0.00 0.00 0.00 56 1020.9
20260505040517 66 0 2.0 6.0 0.00 0.00 0.00 56 1020.9
20260505035516 66 0 1.0 7.0 0.00 0.00 0.00 55 1020.9
20260505034516 65 0 1.0 3.0 0.00 0.00 0.00 60 1020.8
20260505033516 65 0 3.0 8.0 0.00 0.00 0.00 58 1020.9
20260505032517 64 0 1.0 3.0 0.00 0.00 0.00 60 1021.0
20260505031516 63 0 2.0 6.0 0.00 0.00 0.00 62 1021.0
20260505030518 62 270 2.0 4.0 0.00 0.00 0.00 64 1021.1
20260505025518 62 270 2.0 7.0 0.00 0.00 0.00 63 1021.2
20260505024518 63 0 2.0 3.0 0.00 0.00 0.00 62 1021.4
20260505023517 64 0 3.0 6.0 0.00 0.00 0.00 63 1021.4
20260505022518 63 270 2.0 5.0 0.00 0.00 0.00 67 1021.4
20260505021518 63 0 1.0 3.0 0.00 0.00 0.00 67 1021.6
20260505020518 63 248 1.0 4.0 0.00 0.00 0.00 68 1021.7
20260505015518 62 180 1.0 4.0 0.00 0.00 0.00 65 1021.9
20260505014518 62 0 1.0 5.0 0.00 0.00 0.00 67 1022.0
20260505013518 62 0 3.0 8.0 0.00 0.00 0.00 66 1021.9
20260505012518 62 0 2.0 10.0 0.00 0.00 0.00 67 1021.9
20260505011518 62 248 2.0 8.0 0.00 0.00 0.00 69 1022.0
20260505010518 62 0 2.0 4.0 0.00 0.00 0.00 69 1022.1
20260505005518 61 0 3.0 6.0 0.00 0.00 0.00 71 1022.1
20260505004518 61 0 2.0 4.0 0.00 0.00 0.00 74 1022.0
20260505003518 60 0 2.0 9.0 0.00 0.00 0.00 74 1022.0
20260505002518 60 0 2.0 6.0 0.00 0.00 0.00 75 1022.1
20260505001518 59 248 2.0 3.0 0.00 0.00 0.00 78 1022.1
20260505000518 59 270 1.0 4.0 0.00 0.00 0.00 80 1022.1
20260504235518 58 0 1.0 3.0 0.00 0.00 0.00 80 1022.1
20260504234518 57 0 2.0 8.0 0.00 0.00 0.00 82 1021.9
20260504233518 56 0 2.0 5.0 0.00 0.00 0.00 84 1022.0
20260504232518 56 0 2.0 5.0 0.00 0.00 0.00 85 1021.9
20260504231518 55 0 1.0 3.0 0.00 0.00 0.00 88 1021.8